PSLV R/B, 40058

Orbit data source: Space-Track

PSLV R/B, 40058 is space debris in SSO originally from a launch on Mon, 30 Jun 2014 UTC launched from the Sirharikota (SRI). Debris objects in space refer to the collection of defunct objects orbiting the Earth. Examples of debris include non-operational satellites, rocket bodies, and fragments generated from explosions, collisions, or faulty payload assembly.

Loading next visibility...
Identifier
40058, 2014-034F
Orbit
SSO
Country
Flag of ININ / IND
Related business
Manufacturer
VSSC/LPSC
Mission
Spacecraft
Bus & Motor
PS-4, Unknown motor
Mass
920 kg wet, 920 kg dry
Launch date (UTC)
2014-06-30 (11 years ago)
Launch vehicle
Unknown
Launch site
Sirharikota (SRI)
Object type
Payload
Rocket body
Debris
Shape & HBR
Cyl + Cyl + 2 Nozzle, 1.6 m
Radar Cross Section
3.727 m², Large (>1 m²)

Expand to show TLE details & history
Last TLE update: 10 hours ago

TLE from 10 hours ago
0 PSLV R/B
1 40058U 14034F   25312.85761751  .00001676  00000-0  20887-3 0  9990
2 40058  98.3093 160.7526 0019798 330.0693  29.9387 14.83788422613393
Epoch: 2025-11-08T20:34Z
TLE epoch observation values (Epoch: 2025-11-08T20:34:58.152Z)
Latitude
0.00002°
Longitude
163.72909°
Altitude
608.408 km
Speed
7.562 km/s
True Right ascension
10h 43m 00s
True Declination
0° 00' 00"
Sunlit
Object was in daylight at epoch
Visualization orbit readout
Latitude
Unknown
Longitude
Unknown
Altitude
Unknown
Speed
Unknown
Apparent Right ascension
Unknown
Apparent Declination
Unknown
Sunlit
N/A
Visualization observer readout
Local Sidereal Time
02:56:30
Azimuth
Unknown
Elevation
Unknown
Doppler factor
Unknown
Orbital elements
Apogee altitude
628.29 km
Perigee altitude
600.602 km
Semi-major axis
6,992.583 km
Eccentricity
0.00198
Inclination
98.3093°
RAAN
160.7526°
Arg. of periapsis
330.0693°
True anomaly
30.05217°
Mean anomaly
29.9387°
Eccentric anomaly
29.99541°
Mean motion
3.71182 °/min
Orbital period
96.99 mins
BSTAR
0.00020887
Loading maneuver chart data...
Computing Atmospheric mass density...
Loading historical data...
Loading historical data...
Loading historical data...
Loading historical data...
Loading historical data...
Loading historical data...
Loading historical data...
Other satellites on launch #34 in the year 2014 (2014-06-30 UTC)

Documentation

Showing up to 5 results
|